Flag for India Weather past 2 weeks in Bhabua, Bihar, India

Now
81 °F

Partly cloudy.


Feels Like: 88 °F
Forecast: 78 / 82 °F
Wind: No wind

Location: Lucknow / Amausi

Current Time: Aug 2, 2015 at 4:26:57 AM

Latest Report: Aug 2, 2015 at 3:00 AM


Visibility: 2 mi

Pressure: 29.65 "Hg

Humidity: 94%

Dew point: 79 °F

Location of BhabuaLocation

Historic Weather in Bhabua — Graph

°F

Bhabua temperature yesterday

Maximum temperature yesterday: 93 °F (at 2:00 PM)
Minimum temperature yesterday: 79 °F (at 5:30 AM)
Average temperature yesterday: 86 °F

Past Weeks' High & Low Weather Summary

 TemperatureHumidityPressure
High97 °F (Jul 28, 5:30 PM)100% (Jul 24, 6:30 PM)29.68 "Hg (Jul 24, 6:30 PM)
Low79 °F (Jul 24, 3:30 PM)53% (Jul 28, 5:30 PM)29.39 "Hg (Jul 19, 4:30 PM)
Average88 °F78%29.55 "Hg
* Reported Jul 18 3:00 AM — Aug 2 2:00 AM, Bhabua, Weather by CustomWeather, © 2015

Note: Actual official high and low records may vary slightly from our data, if they occured in-between our weather recording intervals... More about our weather records

Advertising

Bhabua weather history for previous 24 hours

 ConditionsComfort  
Time TempWeatherWind HumidityBarometerVisibility
2:00 AM
Sun, Aug 2
81 °FMostly cloudy.No wind94%29.65 "Hg2 mi
1:00 AM81 °FMostly cloudy.No wind89%29.68 "Hg2 mi
12:00 AM81 °FMostly cloudy.No wind89%29.68 "Hg2 mi
11:00 PM
Sat, Aug 1
81 °FPartly cloudy.2 mph89%29.68 "Hg2 mi
9:00 PM82 °FMostly cloudy.3 mph79%29.68 "Hg2 mi
8:30 PM84 °FMostly cloudy.3 mph74%29.65 "Hg2 mi
8:00 PM86 °FMostly cloudy.3 mph84%29.65 "Hg2 mi
7:30 PM88 °FPartly cloudy.2 mph79%29.62 "Hg3 mi
7:00 PM91 °FBroken clouds.2 mph67%29.59 "Hg3 mi
6:30 PM91 °FBroken clouds.2 mph67%29.59 "Hg3 mi
6:00 PM93 °FBroken clouds.2 mph63%29.59 "Hg3 mi
5:30 PM93 °FBroken clouds.2 mph63%29.59 "Hg3 mi
5:00 PM93 °FBroken clouds.2 mph67%29.59 "Hg3 mi
4:30 PM93 °FBroken clouds.3 mph63%29.59 "Hg3 mi
4:00 PM93 °FBroken clouds.5 mph67%29.59 "Hg3 mi
3:30 PM93 °FBroken clouds.6 mph63%29.62 "Hg3 mi
3:00 PM93 °FBroken clouds.3 mph59%29.62 "Hg3 mi
2:30 PM93 °FBroken clouds.6 mph67%29.62 "Hg3 mi
2:00 PM93 °FBroken clouds.2 mph71%29.62 "Hg3 mi
1:30 PM91 °FBroken clouds.2 mph71%29.65 "Hg3 mi
1:00 PM90 °FBroken clouds.2 mph75%29.65 "Hg3 mi
12:30 PM90 °FBroken clouds.3 mph75%29.68 "Hg3 mi
12:00 PM86 °FBroken clouds.2 mph84%29.68 "Hg3 mi
11:00 AM82 °FMore clouds than sun.2 mph89%29.68 "Hg3 mi
10:30 AM82 °FMore clouds than sun.2 mph89%29.68 "Hg2 mi
10:00 AM81 °FDrizzle. More clouds than sun.2 mph94%29.68 "Hg2 mi
9:30 AM81 °FDrizzle. More clouds than sun.2 mph89%29.68 "Hg2 mi
9:00 AM79 °FDrizzle. More clouds than sun.2 mph94%29.68 "Hg2 mi
8:30 AM79 °FDrizzle. More clouds than sun.2 mph94%29.68 "Hg2 mi
7:30 AM79 °FDrizzle. More clouds than sun.2 mph94%29.65 "Hg1 mi
7:00 AM79 °FDrizzle. More clouds than sun.2 mph94%29.65 "Hg1 mi
6:30 AM79 °FLight rain. More clouds than sun.2 mph94%29.65 "Hg1 mi
6:00 AM79 °FLight rain. More clouds than sun.2 mph94%29.62 "Hg1 mi
5:30 AM79 °FLight rain. Mostly cloudy.2 mph94%29.59 "Hg1 mi
5:00 AM81 °FPartly cloudy.2 mph89%29.59 "Hg1 mi
4:00 AM81 °FPartly cloudy.5 mph89%29.59 "Hg1 mi
Weather by CustomWeather, © 2015

See weather overviewHow to use our weather pages